Starlink 11554

operational
NORAD ID: 62833 Int'l Des: 2025-019 Owner: SPXS Country: US Constellation: starlink
LEOCIRCULAR

关于 Starlink 11554

正在加载描述...

实时位置

正在加载3D地球...

即将过境

高度历史

Altitude vs Time

uPlot chart will show altitude changes over time

两行轨道根数

1 62833U 25019E 25302.55782579 .00032933 00000-0 25925-3 0 9995
2 62833 42.9994 16.7129 0001049 287.6476 72.4277 15.70828841 43258
Epoch: Oct 29, 2025 • Age: 39 hours

当前状态

高度 359.2 km
速度 7.70 km/s
星下点 39.22°N, 26.61°E
发射日期 Jan 27, 2025
运行时间 0.7 years
类型 internet

技术详情

分类 Payload
质量 960.00 kg
干质量 910.00 kg
总质量 960.00 kg
长度 0.30 m
直径 4.10 m
跨度 29.00 m
形状 Box + pan
制造商 SPXS
平台类型 Starlink V2MD
阶段状态 In Orbit
所有者/国家 SPXS/US

大型星座

Loading constellations...